Time,TemperatureF,DewpointF,PressureIn,WindDirection,WindDirectionDegrees,WindSpeedMPH,WindSpeedGustMPH,Humidity,HourlyPrecipIn,Conditions,Clouds,dailyrainin,SoftwareType,DateUTC
2013-09-11 04:00:00,65.4,61.8,29.93,WNW,284,1.1,1.1,88,0.00,OVC,,0.00,WeatherDisplay:10.37,2013-09-11 11:00:00,
2013-09-11 08:35:00,65.4,61.8,29.93,WNW,284,1.1,1.1,88,0.00,OVC,,0.00,WeatherDisplay:10.37,2013-09-11 15:35:00,
2013-09-11 17:48:00,86.9,67.7,29.82,WNW,300,2.3,2.3,53,0.00,OVC,,0.00,WeatherDisplay:10.37,2013-09-12 00:48:00,
2013-09-11 17:53:00,86.5,66.8,29.82,WNW,290,5.0,5.0,52,0.00,OVC,,0.00,WeatherDisplay:10.37,2013-09-12 00:53:00,
2013-09-11 17:58:00,85.9,67.3,29.82,NW,306,4.6,4.6,54,0.00,OVC,,0.00,WeatherDisplay:10.37,2013-09-12 00:58:00,
2013-09-11 18:03:00,85.4,66.3,29.83,WNW,302,3.0,3.0,53,0.00,OVC,,0.00,WeatherDisplay:10.37,2013-09-12 01:03:00,
2013-09-11 18:08:00,84.8,66.3,29.83,WNW,284,3.5,3.5,54,0.00,OVC,,0.00,WeatherDisplay:10.37,2013-09-12 01:08:00,
2013-09-11 18:13:00,84.2,66.8,29.83,WNW,298,3.5,3.5,56,0.00,OVC,,0.00,WeatherDisplay:10.37,2013-09-12 01:13:00,
2013-09-11 18:18:00,83.6,66.8,29.83,WNW,301,2.3,2.3,57,0.00,OVC,,0.00,WeatherDisplay:10.37,2013-09-12 01:18:00,
2013-09-11 18:23:00,82.8,66.0,29.83,NW,304,3.5,3.5,57,0.00,OVC,,0.00,WeatherDisplay:10.37,2013-09-12 01:23:00,
2013-09-11 18:28:00,81.9,65.7,29.83,NW,308,4.6,4.6,58,0.00,OVC,,0.00,WeatherDisplay:10.37,2013-09-12 01:28:00,
2013-09-11 18:33:00,81.1,65.4,29.83,WNW,286,5.8,5.8,59,0.00,OVC,,0.00,WeatherDisplay:10.37,2013-09-12 01:33:00,
2013-09-11 18:38:00,80.0,65.3,29.83,WNW,302,5.8,5.8,61,0.00,OVC,,0.00,WeatherDisplay:10.37,2013-09-12 01:38:00,
2013-09-11 18:43:00,79.2,65.1,29.83,WNW,301,4.0,4.0,62,0.00,OVC,,0.00,WeatherDisplay:10.37,2013-09-12 01:43:00,
2013-09-11 18:48:00,78.7,65.0,29.83,WNW,303,5.8,5.8,63,0.00,OVC,,0.00,WeatherDisplay:10.37,2013-09-12 01:48:00,
2013-09-11 18:53:00,77.9,64.7,29.83,NW,305,5.8,5.8,64,0.00,OVC,,0.00,WeatherDisplay:10.37,2013-09-12 01:53:00,
2013-09-11 18:58:00,77.4,64.7,29.83,NW,306,4.6,4.6,65,0.00,OVC,,0.00,WeatherDisplay:10.37,2013-09-12 01:58:00,
2013-09-11 19:03:00,76.9,64.2,29.83,NW,306,3.5,3.5,65,0.00,OVC,,0.00,WeatherDisplay:10.37,2013-09-12 02:03:00,
2013-09-11 19:08:00,76.4,64.2,29.83,NW,317,3.5,3.5,66,0.00,OVC,,0.00,WeatherDisplay:10.37,2013-09-12 02:08:00,
2013-09-11 19:13:00,75.8,63.6,29.83,NW,306,3.5,3.5,66,0.00,OVC,,0.00,WeatherDisplay:10.37,2013-09-12 02:13:00,
2013-09-11 19:18:00,75.2,63.5,29.83,NW,320,5.0,5.0,67,0.00,OVC,,0.00,WeatherDisplay:10.37,2013-09-12 02:18:00,
2013-09-11 19:23:00,74.6,63.8,29.83,NW,310,3.5,3.5,69,0.00,OVC,,0.00,WeatherDisplay:10.37,2013-09-12 02:23:00,
2013-09-11 19:28:00,74.1,63.3,29.84,NW,311,3.5,3.5,69,0.00,OVC,,0.00,WeatherDisplay:10.37,2013-09-12 02:28:00,
2013-09-11 19:33:00,73.7,63.7,29.84,NW,324,3.5,3.5,71,0.00,OVC,,0.00,WeatherDisplay:10.37,2013-09-12 02:33:00,
2013-09-11 19:38:00,73.3,63.7,29.84,NW,314,4.0,4.0,72,0.00,OVC,,0.00,WeatherDisplay:10.37,2013-09-12 02:38:00,
2013-09-11 19:43:00,73.0,63.4,29.84,NW,317,3.5,3.5,72,0.00,OVC,,0.00,WeatherDisplay:10.37,2013-09-12 02:43:00,
2013-09-11 19:48:00,72.6,63.1,29.84,NW,306,5.0,5.0,72,0.00,OVC,,0.00,WeatherDisplay:10.37,2013-09-12 02:48:00,
2013-09-11 19:53:00,72.1,62.6,29.85,NW,319,3.5,3.5,72,0.00,OVC,,0.00,WeatherDisplay:10.37,2013-09-12 02:53:00,
2013-09-11 19:58:00,71.5,62.4,29.85,NNW,329,5.8,5.8,73,0.00,OVC,,0.00,WeatherDisplay:10.37,2013-09-12 02:58:00,
2013-09-11 20:03:00,71.0,62.3,29.85,NW,309,5.0,5.0,74,0.00,OVC,,0.00,WeatherDisplay:10.37,2013-09-12 03:03:00,
2013-09-11 20:08:00,70.4,61.7,29.85,NW,316,5.0,5.0,74,0.00,OVC,,0.00,WeatherDisplay:10.37,2013-09-12 03:08:00,
2013-09-11 20:13:00,69.9,61.6,29.85,NNW,346,8.1,8.1,75,0.00,OVC,,0.00,WeatherDisplay:10.37,2013-09-12 03:13:00,
2013-09-11 20:18:00,69.4,61.5,29.85,NW,316,8.1,8.1,76,0.00,OVC,,0.00,WeatherDisplay:10.37,2013-09-12 03:18:00,
2013-09-11 20:23:00,69.0,61.1,29.85,NNW,327,5.8,5.8,76,0.00,OVC,,0.00,WeatherDisplay:10.37,2013-09-12 03:23:00,
2013-09-11 20:28:00,68.6,61.1,29.86,NW,321,9.2,9.2,77,0.00,OVC,,0.00,WeatherDisplay:10.37,2013-09-12 03:28:00,
2013-09-11 20:33:00,68.2,61.1,29.86,NW,321,6.9,6.9,78,0.00,OVC,,0.00,WeatherDisplay:10.37,2013-09-12 03:33:00,
2013-09-11 20:38:00,68.0,61.2,29.86,NW,324,10.0,10.0,79,0.00,OVC,,0.00,WeatherDisplay:10.37,2013-09-12 03:38:00,
2013-09-11 20:43:00,67.7,61.0,29.86,NW,321,11.5,11.5,79,0.00,OVC,,0.00,WeatherDisplay:10.37,2013-09-12 03:43:00,
2013-09-11 20:48:00,67.3,60.9,29.86,NNW,342,9.2,9.2,80,0.00,OVC,,0.00,WeatherDisplay:10.37,2013-09-12 03:48:00,
2013-09-11 20:53:00,66.9,60.5,29.87,NW,323,7.0,7.0,80,0.00,OVC,,0.00,WeatherDisplay:10.37,2013-09-12 03:53:00,
2013-09-11 20:58:00,66.5,60.5,29.87,NW,324,4.0,4.0,81,0.00,OVC,,0.00,WeatherDisplay:10.37,2013-09-12 03:58:00,
2013-09-11 21:01:00,66.4,60.4,29.87,North,355,4.6,4.6,81,0.00,OVC,,0.00,WeatherDisplay:10.37,2013-09-12 04:01:00,
2013-09-11 21:03:00,66.2,60.2,29.87,NW,322,4.6,4.6,81,0.00,OVC,,0.00,WeatherDisplay:10.37,2013-09-12 04:03:00,
2013-09-11 21:08:00,65.8,60.2,29.87,NW,305,7.0,7.0,82,0.00,OVC,,0.00,WeatherDisplay:10.37,2013-09-12 04:08:00,
2013-09-11 21:13:00,65.4,59.8,29.87,NW,317,9.2,9.2,82,0.00,OVC,,0.00,WeatherDisplay:10.37,2013-09-12 04:13:00,
2013-09-11 21:18:00,65.0,59.7,29.87,NW,321,8.1,8.1,83,0.00,OVC,,0.00,WeatherDisplay:10.37,2013-09-12 04:18:00,
2013-09-11 21:23:00,64.8,59.9,29.87,NW,322,6.0,6.0,84,0.00,OVC,,0.00,WeatherDisplay:10.37,2013-09-12 04:23:00,
2013-09-11 21:28:00,64.7,59.8,29.88,WNW,290,6.9,6.9,84,0.00,OVC,,0.00,WeatherDisplay:10.37,2013-09-12 04:28:00,
2013-09-11 21:33:00,64.5,59.6,29.88,NNW,328,6.9,6.9,84,0.00,OVC,,0.00,WeatherDisplay:10.37,2013-09-12 04:33:00,
2013-09-11 21:38:00,64.2,59.6,29.88,NNW,329,10.4,10.4,85,0.00,OVC,,0.00,WeatherDisplay:10.37,2013-09-12 04:38:00,
2013-09-11 21:43:00,64.0,59.4,29.88,WNW,299,11.5,11.5,85,0.00,OVC,,0.00,WeatherDisplay:10.37,2013-09-12 04:43:00,
2013-09-11 21:48:00,63.8,59.2,29.88,NW,313,10.4,10.4,85,0.00,OVC,,0.00,WeatherDisplay:10.37,2013-09-12 04:48:00,
2013-09-11 21:53:00,63.6,59.3,29.88,NW,311,7.0,7.0,86,0.00,OVC,,0.00,WeatherDisplay:10.37,2013-09-12 04:53:00,
2013-09-11 21:58:00,63.5,59.2,29.88,NW,323,9.2,9.2,86,0.00,OVC,,0.00,WeatherDisplay:10.37,2013-09-12 04:58:00,
2013-09-11 22:03:00,63.4,59.1,29.88,NW,311,8.1,8.1,86,0.00,OVC,,0.00,WeatherDisplay:10.37,2013-09-12 05:03:00,
2013-09-11 22:08:00,63.4,59.1,29.88,NNW,335,5.8,5.8,86,0.00,OVC,,0.00,WeatherDisplay:10.37,2013-09-12 05:08:00,
2013-09-11 22:13:00,63.5,59.2,29.88,NNW,338,6.9,6.9,86,0.00,OVC,,0.00,WeatherDisplay:10.37,2013-09-12 05:13:00,
2013-09-11 22:18:00,63.5,59.2,29.88,North,355,9.2,9.2,86,0.00,OVC,,0.00,WeatherDisplay:10.37,2013-09-12 05:18:00,
2013-09-11 22:23:00,63.5,59.2,29.88,North,355,11.5,11.5,86,0.00,OVC,,0.00,WeatherDisplay:10.37,2013-09-12 05:23:00,
2013-09-11 22:28:00,63.5,59.2,29.88,WNW,289,4.0,4.0,86,0.00,OVC,,0.00,WeatherDisplay:10.37,2013-09-12 05:28:00,
2013-09-11 22:33:00,63.4,59.1,29.88,NW,319,3.5,3.5,86,0.00,OVC,,0.00,WeatherDisplay:10.37,2013-09-12 05:33:00,
2013-09-11 22:38:00,63.4,59.1,29.88,WNW,290,3.5,3.5,86,0.00,OVC,,0.00,WeatherDisplay:10.37,2013-09-12 05:38:00,
2013-09-11 22:43:00,63.2,58.9,29.88,NNW,346,4.6,4.6,86,0.00,OVC,,0.00,WeatherDisplay:10.37,2013-09-12 05:43:00,
2013-09-11 22:48:00,63.1,58.8,29.89,WNW,290,3.5,3.5,86,0.00,OVC,,0.00,WeatherDisplay:10.37,2013-09-12 05:48:00,
2013-09-11 22:53:00,62.9,58.6,29.89,WNW,301,4.0,4.0,86,0.00,OVC,,0.00,WeatherDisplay:10.37,2013-09-12 05:53:00,
2013-09-11 22:58:00,62.6,58.4,29.89,WNW,295,3.5,3.5,86,0.00,OVC,,0.00,WeatherDisplay:10.37,2013-09-12 05:58:00,
2013-09-11 23:03:00,62.3,58.4,29.89,NW,308,5.8,5.8,87,0.00,OVC,,0.00,WeatherDisplay:10.37,2013-09-12 06:03:00,
2013-09-11 23:08:00,61.9,58.0,29.89,NW,305,6.9,6.9,87,0.00,OVC,,0.00,WeatherDisplay:10.37,2013-09-12 06:08:00,
2013-09-11 23:13:00,61.6,58.0,29.89,NW,324,4.6,4.6,88,0.00,OVC,,0.00,WeatherDisplay:10.37,2013-09-12 06:13:00,
2013-09-11 23:18:00,61.3,57.7,29.90,NW,317,4.6,4.6,88,0.00,OVC,,0.00,WeatherDisplay:10.37,2013-09-12 06:18:00,
2013-09-11 23:23:00,61.1,57.5,29.90,NW,304,4.6,4.6,88,0.00,OVC,,0.00,WeatherDisplay:10.37,2013-09-12 06:23:00,
2013-09-11 23:28:00,60.8,57.5,29.90,NW,317,4.6,4.6,89,0.00,OVC,,0.00,WeatherDisplay:10.37,2013-09-12 06:28:00,
2013-09-11 23:33:00,60.7,57.4,29.90,WNW,294,4.6,4.6,89,0.00,OVC,,0.00,WeatherDisplay:10.37,2013-09-12 06:33:00,
2013-09-11 23:38:00,60.4,57.1,29.90,NW,321,2.3,2.3,89,0.00,OVC,,0.00,WeatherDisplay:10.37,2013-09-12 06:38:00,
2013-09-11 23:43:00,60.3,57.4,29.91,NW,315,6.9,6.9,90,0.00,OVC,,0.00,WeatherDisplay:10.37,2013-09-12 06:43:00,
2013-09-11 23:48:00,60.1,57.2,29.91,NW,312,4.0,4.0,90,0.00,OVC,,0.00,WeatherDisplay:10.37,2013-09-12 06:48:00,
2013-09-11 23:53:00,60.0,57.1,29.91,WNW,292,3.5,3.5,90,0.00,OVC,,0.00,WeatherDisplay:10.37,2013-09-12 06:53:00,
2013-09-11 23:58:00,59.9,57.0,29.91,WNW,303,3.5,3.5,90,0.00,OVC,,0.00,WeatherDisplay:10.37,2013-09-12 06:58:00,